Flag for Norway Weather past 2 weeks in Fetsund, Norway

Now
55 °F

Cool.


Feels Like: 55 °F
Forecast: 45 / 48 °F
Wind: 2 mph from Southwest

Location: Oslo-Blindern

Current Time: Oct 20, 2014 at 2:18:32 PM

Latest Report: Oct 20, 2014 at 1:00 PM


Visibility: N/A

Pressure: 29.38 "Hg

Humidity: 76%

Dew point: 48 °F

Location of FetsundLocation

Historic Weather in Fetsund — Graph

°F

Fetsund temperature yesterday

Maximum temperature yesterday: 55 °F (at 4:00 PM)
Minimum temperature yesterday: 52 °F (at 11:00 AM)
Average temperature yesterday: 53 °F

Past Weeks' High & Low Weather Summary

 TemperatureHumidityPressure
High60 °F (Oct 5, 3:00 PM)100% (Oct 14, 8:00 AM)30.40 "Hg (Oct 14, 8:00 AM)
Low35 °F (Oct 14, 5:00 AM)54% (Oct 5, 4:00 PM)29.29 "Hg (Oct 20, 1:00 AM)
Average46 °F88%29.85 "Hg
* Reported Oct 5 1:00 PM — Oct 20 1:00 PM, Fetsund, Weather by CustomWeather, © 2014

Note: Actual official high and low records may vary slightly from our data, if they occured in-between our weather recording intervals... More about our weather records

Advertising

Fetsund weather history for previous 24 hours

 ConditionsComfort  
Time TempWeatherWind HumidityBarometerVisibility
1:00 PM
Oct 20
55 °FCool.2 mph76%29.38 "HgN/A
12:00 PM54 °FCool.2 mph86%29.38 "HgN/A
11:00 AM51 °FScattered clouds.2 mph98%29.35 "Hg43 mi
10:00 AM50 °FCool.1 mph98%29.35 "HgN/A
9:00 AM50 °FCool.1 mph98%29.32 "HgN/A
8:00 AM50 °FRain. Low clouds.1 mph98%29.29 "Hg2 mi
7:00 AM50 °FCool.2 mph98%29.29 "HgN/A
5:00 AM50 °FLow clouds.2 mph98%29.29 "Hg9 mi
4:00 AM50 °FCool.1 mph98%29.29 "HgN/A
3:00 AM51 °FCool.2 mph98%29.29 "HgN/A
2:00 AM51 °FLow clouds.2 mph98%29.29 "Hg12 mi
1:00 AM52 °FCool.3 mph97%29.29 "HgN/A
12:00 AM53 °FCool.3 mph97%29.32 "HgN/A
11:00 PM
Oct 19
53 °FSprinkles. Low clouds.3 mph97%29.32 "Hg4 mi
10:00 PM53 °FCool.5 mph97%29.35 "HgN/A
9:00 PM53 °FCool.3 mph96%29.35 "HgN/A
8:00 PM54 °FLow clouds.5 mph94%29.38 "Hg19 mi
7:00 PM54 °FCool.2 mph94%29.41 "HgN/A
6:00 PM54 °FCool.3 mph93%29.41 "HgN/A
5:00 PM55 °FLow clouds.1 mph93%29.44 "Hg12 mi
4:00 PM55 °FCool.2 mph94%29.47 "HgN/A
3:00 PM54 °FCool.1 mph95%29.50 "HgN/A
2:00 PM54 °FLow clouds.2 mph97%29.54 "Hg16 mi
Weather by CustomWeather, © 2014

See weather overviewHow to use our weather pages